Voltar ao catálogo

BREEZE-M DEB

LostHEO
NORAD 38626·DEBRIS·🇷🇺 Russia

Lançado Mar 14, 2008 de Baikonur Cosmodrome

Loading…

Próximas Passagens (próximas 24 horas)

TLE

ObsoletoSource: Space-Track

Época: Mar 17, 2013, 13:16 UTC

1 38626U 08011BZ  13076.55339785 +.00008929 +00000-0 +12319-1 0  9992
2 38626 048.6335 212.5855 6542740 230.2728 050.6763 03.16643322015144

Acompanhe BREEZE-M DEB em tempo real com AllMySat

Download on the App Store